Yaogan 31 hao 03 zu 01 xing

operational
NORAD ID: 47691 Int'l Des: 2021-014 Owner: ZLZB Country: CN Constellation: yaogan
LEO

Yaogan 31 hao 03 zu 01 xingについて

説明を読み込み中...

リアルタイム位置

3D地球を読み込み中...

次回通過

高度履歴

Altitude vs Time

uPlot chart will show altitude changes over time

軌道要素

1 47691U 21014A 26071.17216534 .00000083 00000-0 26879-3 0 9996
2 47691 63.4029 87.1647 0168627 0.2266 359.8808 13.45441707247721
Epoch: Mar 12, 2026 • Age: 12 hours

現在のステータス

高度 1213.5 km
速度 7.19 km/s
衛星直下点 -17.24°S, 78.82°W
打ち上げ日 Feb 24, 2021
運用期間 5 years
タイプ military

技術仕様

分類 Payload
質量 500.00 kg
乾燥質量 500.00 kg
総質量 500.00 kg
長さ 0.50 m
直径 0.50 m
スパン 1.00 m
形状 Box + 2 Pan
製造者 DFHZ
バスタイプ JB-8B
フェーズステータス In Orbit
所有者/国 ZLZB/CN

大規模コンステレーション

Loading constellations...